Theta_e
314 314 314 314 314 314 313 313 313 313 313 313 313 312 312 312 312 312 312 312 312 312 310 311 310 311 311 312 312 312 314 312 309 309 308 308 305 304 303 300 294 294 290
313 313 313 313 313 313 313 313 313 313 312 312 312 312 311 311 311 312 311 311 312 311 310 309 308 310 310 311 311 312 312 312 311 312 307 306 304 301 298 295 296 295 292
313 313 313 313 313 313 313 313 313 312 312 311 311 311 310 311 310 310 310 311 311 309 311 309 308 308 309 309 310 311 311 311 310 305 305 303 300 298 296 295 295 293 292
312 311 311 311 311 311 311 312 312 312 312 311 311 310 310 309 309 309 309 310 309 309 309 308 307 308 308 309 309 309 307 307 306 304 302 300 297 296 295 295 294 292 288
310 310 310 309 310 310 311 311 312 312 311 310 310 310 309 308 308 308 308 309 308 307 307 307 306 306 308 308 307 306 305 304 303 302 299 297 295 294 292 293 291 289 289
309 309 309 309 309 310 310 311 311 311 311 311 311 310 309 308 307 307 307 307 306 306 305 304 304 305 306 307 306 305 304 302 301 300 298 295 294 292 293 292 291 288 287
306 306 307 308 308 309 310 310 310 310 311 311 310 309 308 307 306 306 306 305 305 305 304 302 303 305 305 305 305 303 302 299 297 296 296 296 294 293 293 292 288 289 291
303 303 303 304 304 305 307 308 308 309 309 310 310 308 307 305 304 304 303 303 302 302 302 302 303 304 304 304 303 300 297 295 295 294 293 293 293 293 292 291 292 291 290
300 301 302 302 303 303 304 306 307 308 307 306 306 306 305 303 302 300 300 300 299 300 300 302 302 302 302 301 299 296 294 293 292 291 291 291 291 290 291 292 291 290 289
300 300 300 301 301 303 305 307 307 307 306 304 303 303 303 302 299 298 297 298 299 299 300 300 300 299 297 295 294 293 291 290 290 290 290 289 290 291 290 290 289 289 288
300 300 300 302 303 304 305 306 305 304 303 302 301 301 299 297 297 296 297 297 297 298 297 295 294 292 292 290 290 290 290 289 289 289 289 290 290 290 289 289 288 288 287
300 300 300 301 304 304 303 303 302 300 299 298 297 297 296 294 295 296 297 295 294 294 292 291 290 289 289 289 289 288 288 289 289 289 290 289 288 288 288 287 287 286 285
299 299 299 299 301 301 300 300 301 299 297 296 295 294 293 294 294 292 291 291 290 290 290 289 289 288 288 288 289 289 288 288 288 289 288 288 287 287 287 287 286 285 284
297 297 298 299 299 298 297 295 294 294 296 295 294 293 292 291 290 289 289 289 289 289 289 288 288 288 288 288 288 288 288 288 288 288 287 287 287 287 286 285 284 284 283
295 296 296 297 296 295 295 294 293 292 291 291 291 290 290 289 288 288 288 288 288 288 288 288 287 287 287 287 287 287 287 287 287 287 287 286 286 285 284 284 283 283 282
293 296 295 294 293 292 291 291 290 289 289 290 290 290 289 288 288 288 288 289 289 288 288 288 287 287 287 287 287 287 287 287 286 286 286 285 284 283 283 282 281 281 281
292 293 294 292 291 289 289 288 289 288 288 288 289 289 289 289 289 289 288 288 287 287 287 286 286 286 286 286 286 286 286 285 285 284 284 283 282 281 281 280 280 279 279
292 292 290 290 289 288 288 287 288 288 289 289 289 290 290 289 289 288 287 287 287 286 286 285 285 285 285 285 284 284 284 284 283 283 282 282 281 280 279 279 278 277 276
291 291 290 289 288 287 287 287 288 288 289 290 290 289 289 288 287 287 286 287 287 286 286 285 284 284 284 284 283 283 283 282 282 281 280 280 279 278 277 276 276 275 275
290 290 289 288 288 287 287 287 287 287 288 289 289 288 288 287 286 286 286 285 285 284 284 284 283 282 282 281 281 280 280 279 279 279 279 278 277 277 276 275 274 273 272
289 288 287 287 287 287 287 287 287 287 289 288 287 286 285 285 285 284 284 284 283 282 281 281 280 279 279 278 278 278 277 277 276 276 275 275 275 274 273 272 271 271 270
286 286 285 286 287 287 287 287 287 288 287 286 285 285 284 283 283 283 282 281 280 279 279 279 279 278 278 277 277 276 276 275 275 275 274 273 272 272 271 271 270 269 269
284 284 284 285 286 286 286 286 287 287 286 285 284 284 283 282 281 280 280 279 279 279 278 277 277 276 276 275 275 274 274 274 274 273 272 272 271 271 270 270 269 268 268
282 282 283 284 286 286 285 286 286 286 285 283 282 281 280 279 279 279 279 278 277 277 276 275 275 274 274 273 273 272 272 272 272 272 271 271 271 270 269 268 268 267 267
280 281 282 284 285 284 286 285 285 284 283 281 280 279 279 279 278 278 276 276 275 274 274 273 273 272 272 271 271 271 271 271 271 270 270 270 270 269 269 268 268 267 267
279 280 281 283 282 284 283 283 283 282 280 279 279 278 278 277 276 275 275 274 273 273 272 272 272 272 271 271 271 270 270 270 269 269 269 269 269 268 268 267 267 267 266
Wind_Speed
14 13 13 14 17 19 22 23 25 28 30 32 34 35 37 37 36 37 38 40 42 41 41 43 47 48 46 51 54 55 55 51 51 48 46 44 37 36 35 32 36 42 42
16 16 17 17 18 21 25 26 29 33 33 34 35 37 38 39 39 39 37 38 39 40 38 38 38 41 45 44 50 49 51 49 49 50 49 45 42 36 31 29 33 38 36
15 16 16 17 19 21 24 28 31 35 35 35 35 35 36 37 39 39 38 38 38 38 37 37 35 36 41 41 46 47 49 50 47 45 47 41 38 33 31 29 29 28 26
15 18 19 20 21 24 27 30 33 34 36 35 35 36 37 37 38 39 39 38 38 37 37 36 35 35 36 38 41 42 41 42 42 41 42 39 36 33 31 27 25 22 23
22 24 26 28 29 29 29 29 31 32 32 34 35 35 35 37 38 38 38 37 37 36 35 35 35 35 36 36 36 37 37 37 37 36 36 37 36 32 25 23 21 20 26
28 29 30 31 32 33 34 34 34 33 33 33 33 34 34 35 33 33 33 35 35 34 35 34 34 35 36 36 36 35 33 32 33 32 35 34 32 25 21 22 23 27 30
29 29 30 32 33 34 36 36 36 36 37 38 36 35 34 33 32 32 32 33 33 33 33 33 33 33 34 33 31 31 29 26 26 24 24 27 26 21 21 21 25 28 29
31 34 36 37 39 39 40 40 38 37 37 39 40 37 36 32 31 31 29 32 32 33 31 31 32 30 29 29 28 27 24 20 19 16 15 15 14 15 14 17 18 20 21
35 35 36 39 41 42 43 45 46 43 38 35 36 36 34 31 29 26 26 27 27 28 29 29 29 27 26 27 23 20 16 13 11 10 13 16 12 10 10 14 15 12 14
36 38 38 39 41 42 42 42 43 43 41 37 35 33 32 29 26 23 25 24 26 26 26 25 25 22 19 15 13 12 13 14 15 15 13 9 9 10 6 3 6 11 15
35 37 39 39 40 41 42 41 39 38 36 35 35 32 29 26 22 20 19 22 22 21 21 18 14 10 7 7 5 6 8 13 16 16 9 8 3 2 5 9 11 13 16
35 36 38 40 40 39 39 38 37 35 34 33 32 29 25 21 18 17 17 17 16 14 10 8 6 8 8 7 7 8 10 12 16 13 8 3 4 7 9 11 14 16 18
35 36 37 38 38 36 34 33 34 33 31 31 28 26 22 19 15 10 9 8 6 6 7 8 11 12 15 13 12 13 10 9 11 7 5 7 9 10 11 15 15 15 16
36 36 36 37 35 33 31 30 29 29 29 27 24 21 19 14 11 8 5 7 9 11 14 16 17 16 14 12 9 11 11 9 6 8 9 11 11 12 14 14 14 15 16
37 36 35 33 31 30 30 30 28 25 21 17 14 14 12 10 13 8 7 9 10 12 13 16 17 14 12 11 12 12 8 7 9 12 12 12 14 15 15 16 16 17 18
36 36 34 31 28 27 25 21 15 10 8 6 6 7 8 10 13 10 11 11 11 11 12 13 13 11 10 9 9 9 8 8 10 12 13 14 14 15 15 15 15 16 17
35 34 33 28 26 22 16 12 10 8 9 7 6 6 8 10 11 10 11 12 11 9 9 10 9 7 5 4 6 8 9 10 11 12 14 14 14 14 15 16 17 18 19
35 33 31 26 22 18 15 15 14 14 14 14 13 10 10 10 10 11 11 11 9 6 5 4 3 2 4 4 5 6 7 8 10 12 13 14 15 15 16 17 17 18 18
35 33 27 23 20 18 19 19 17 16 15 13 11 9 10 10 11 11 10 8 7 5 4 3 2 2 3 5 6 8 8 9 11 12 13 14 15 16 16 15 16 17 17
33 30 24 21 21 22 23 21 21 18 14 10 10 10 11 11 11 10 8 7 6 5 3 3 4 4 6 7 9 10 11 12 13 14 15 16 16 16 16 16 17 17 17
30 27 23 23 25 27 26 24 22 17 13 13 13 14 13 10 11 9 8 7 6 5 4 5 6 7 9 10 12 12 13 14 14 15 15 16 17 17 17 16 16 16 16
27 25 24 25 27 29 26 22 22 18 16 14 14 14 13 12 10 9 8 6 4 4 6 8 9 10 11 12 13 14 14 14 14 15 15 16 16 16 16 16 16 15 15
24 23 23 25 27 28 27 24 21 18 17 16 16 15 13 11 9 7 6 5 6 8 9 10 12 12 13 13 13 13 14 14 14 14 14 15 15 16 16 16 15 14 14
20 20 21 25 27 28 26 22 21 20 19 18 16 14 12 10 9 7 7 9 9 10 11 12 13 13 13 13 13 13 13 12 13 14 15 15 16 16 15 15 14 14 15
16 18 23 26 28 27 23 23 21 20 19 17 15 13 11 10 9 10 11 11 12 13 13 12 12 11 11 11 12 12 12 13 14 15 15 15 16 16 15 15 15 16 17
14 17 20 22 23 22 21 20 19 19 17 16 13 12 11 11 12 12 13 13 13 12 11 10 10 10 10 11 12 13 14 14 14 15 15 16 16 16 15 15 16 17 18
Wind_Direction
345 333 320 305 297 294 300 302 308 304 300 292 285 281 277 273 269 265 264 264 264 267 270 269 269 267 269 272 272 273 269 267 266 264 268 267 265 265 263 258 241 241 236
325 316 315 307 297 291 297 295 298 298 295 291 285 280 278 278 277 274 272 269 269 271 271 272 271 267 265 270 274 272 273 274 269 273 269 266 265 264 260 247 245 243 241
321 321 318 309 299 292 288 287 287 290 292 291 287 282 279 279 278 279 276 274 273 273 272 272 272 268 265 264 272 271 276 273 271 266 264 262 260 252 243 245 236 233 226
326 328 323 317 308 303 300 296 291 289 289 289 289 288 283 279 277 277 274 271 271 272 272 273 272 272 271 270 273 274 276 274 273 266 262 258 255 248 242 238 234 223 221
330 330 326 323 320 318 312 307 304 300 294 290 289 287 284 279 277 275 273 272 273 273 269 268 269 267 270 271 274 274 273 273 272 268 257 251 249 244 234 237 212 209 221
323 323 321 319 319 322 321 318 314 310 307 303 300 295 288 283 278 273 270 269 269 270 270 269 267 267 270 270 271 272 273 272 271 264 256 251 247 241 232 205 203 211 221
324 324 324 321 320 319 318 318 316 310 306 303 300 296 292 285 278 272 267 266 267 269 271 273 270 266 266 268 270 271 271 265 261 262 262 255 244 231 212 203 211 222 236
321 320 320 319 319 320 319 318 316 313 308 301 297 294 289 283 276 271 266 266 267 269 271 270 269 267 264 266 268 267 266 264 262 258 245 238 213 195 205 218 234 240 245
312 311 310 310 310 311 312 312 314 313 311 305 297 291 287 282 277 272 267 268 270 271 270 270 268 267 266 266 262 258 253 238 217 204 190 174 179 214 230 224 227 233 247
308 305 304 302 299 299 299 300 304 307 307 305 299 293 287 283 278 273 270 272 270 271 270 266 266 263 263 258 245 232 218 208 194 189 162 173 195 184 200 222 279 274 265
315 314 311 306 303 301 298 298 297 299 299 298 294 292 287 283 277 271 272 269 265 263 262 262 260 260 218 188 195 204 207 192 185 166 160 165 172 310 309 298 290 287 278
309 311 311 308 304 301 300 300 300 300 298 295 292 288 282 280 271 264 260 260 261 259 256 245 212 163 147 131 126 143 161 161 164 179 195 245 299 308 290 282 291 286 277
307 307 305 303 302 300 298 298 298 298 296 293 287 285 278 269 253 237 232 246 226 192 170 148 139 137 137 130 134 139 141 137 156 199 266 291 289 282 284 297 293 277 272
306 304 304 303 302 300 297 298 295 292 288 283 278 273 264 247 207 192 182 142 128 132 135 135 129 137 141 142 143 145 152 187 232 280 302 299 293 293 296 292 284 281 277
305 303 303 303 300 298 298 298 294 288 280 270 268 261 251 219 179 162 143 135 129 129 135 139 139 141 149 158 164 174 191 248 278 285 287 286 291 293 290 286 283 277 270
306 302 301 301 297 295 293 289 279 272 261 254 242 217 202 175 159 157 133 127 124 124 125 123 131 153 178 196 209 228 242 255 264 271 277 286 291 290 287 285 282 277 269
299 299 295 293 294 290 274 250 214 165 139 119 116 137 147 150 155 150 131 119 115 112 110 118 126 136 158 203 235 247 258 263 270 279 282 284 284 284 287 288 284 277 273
292 292 290 290 286 269 235 216 214 191 175 161 153 153 158 161 156 162 166 152 147 142 137 136 158 190 237 267 284 288 287 291 294 292 290 290 286 286 285 283 279 276 276
287 287 284 278 270 248 225 218 221 210 193 181 174 175 173 170 182 181 178 166 155 165 160 152 202 262 288 289 289 296 298 299 296 296 295 292 291 289 285 281 278 278 281
283 281 272 260 252 234 222 220 214 205 191 190 188 186 185 180 179 177 159 156 159 169 194 221 254 269 283 299 305 309 310 308 305 301 296 293 290 289 286 284 281 280 280
281 274 258 248 244 229 219 213 207 196 202 194 184 175 160 160 169 166 169 177 190 207 233 264 290 302 306 306 307 307 307 305 302 302 302 298 294 291 290 288 287 286 285
276 267 252 246 237 222 213 206 193 194 191 194 186 183 181 179 188 189 194 205 227 259 287 296 297 300 304 305 306 306 305 304 302 300 295 292 294 293 292 292 291 288 285
271 260 247 239 226 211 205 196 192 189 188 189 192 192 190 193 204 211 224 251 274 285 293 297 298 302 303 304 305 303 300 299 298 298 296 297 296 294 294 293 289 286 280
264 247 236 220 209 205 198 195 188 189 191 194 195 195 201 210 227 246 268 278 285 291 295 297 300 302 302 300 299 299 300 304 303 302 301 298 293 290 290 289 288 282 276
250 234 221 212 207 197 194 192 191 190 192 196 201 207 221 236 258 270 277 286 290 292 294 297 295 293 295 298 299 301 305 303 299 295 291 289 289 288 285 283 282 278 276
233 220 209 202 196 192 189 188 188 191 196 205 214 230 247 260 267 274 283 286 287 288 286 284 289 294 296 298 300 301 298 292 287 286 287 287 286 285 284 281 276 274 274